Weather History for Crookston, MN

Change the Weather History Date:

Saturday, September 7, 2013

  Actual Average Record
Temperature  
Mean Temperature 73 °F -  
Max Temperature 82 °F 71 °F 93 °F (2003)
Min Temperature 64 °F 49 °F 44 °F (1998)
Cooling Degree Days 8    
Growing Degree Days 23 (Base 50)    
Moisture  
Dew Point 59 °F    
Average Humidity 65    
Maximum Humidity 88    
Minimum Humidity 35    
Precipitation  
Precipitation 0.00 in - - ()
Sea Level Pressure  
Sea Level Pressure 30.02 in    
Wind  
Wind Speed 6 mph (NE)    
Max Wind Speed 16 mph    
Max Gust Speed 21 mph    
Visibility 10 miles    
Events Rain , Thunderstorm    
Averages and records for this station are not official NWS values.
T = Trace of Precipitation, MM = Missing Value Source: NWS Daily Summary

Daily Weather History Graph

Daily Weather History Graph

Search for Another Location

Airport:

Trip Planner

Search our weather history database for the weather conditions in past years. The results will help you decide how hot, cold, wet, or windy it might be!

Date:

Astronomy

Sep. 07, 2013 Rise Set
Actual Time 6:53 AM CDT 7:54 PM CDT
Civil Twilight 6:21 AM CDT 8:26 PM CDT
Nautical Twilight 5:43 AM CDT 9:03 PM CDT
Astronomical Twilight 5:03 AM CDT 9:43 PM CDT
Moon 9:22 AM CDT (9/7) 8:37 PM CDT (9/7)
Length of Visible Light 14h 04m
Length of Day
13h 01m
Waxing Crescent, 5% of the Moon is Illuminated
Sep 7
Waxing Crescent
Sep 12
First Quarter
Sep 19
Full
Sep 26
Last Quarter
Oct 4
New

Hourly Weather History & Observations

Time (CDT) Temp. Heat Index Dew Point Humidity Pressure Visibility Wind Dir Wind Speed Gust Speed Precip Events Conditions
12:14 AM 73.4 °F - 66.2 °F 78% 29.89 in 10.0 mi Calm Calm - N/A   Clear
12:35 AM 73.4 °F - 66.2 °F 78% 29.89 in 10.0 mi Calm Calm - N/A   Clear
12:55 AM 71.6 °F - 66.2 °F 83% 29.89 in 10.0 mi Calm Calm - N/A   Clear
1:14 AM 71.6 °F - 66.2 °F 83% 29.90 in 10.0 mi Calm Calm - N/A   Clear
1:35 AM 71.6 °F - 66.2 °F 83% 29.90 in 10.0 mi Calm Calm - N/A   Clear
1:54 AM 71.6 °F - 66.2 °F 83% 29.90 in 10.0 mi Calm Calm - N/A   Clear
2:15 AM 71.6 °F - 66.2 °F 83% 29.91 in 10.0 mi NNE 3.5 mph - N/A   Clear
2:34 AM 71.6 °F - 66.2 °F 83% 29.91 in 10.0 mi Calm Calm - N/A   Clear
2:54 AM 71.6 °F - 66.2 °F 83% 29.91 in 10.0 mi Calm Calm - N/A   Clear
3:15 AM 69.8 °F - 66.2 °F 88% 29.91 in 10.0 mi NW 4.6 mph - N/A   Clear
3:34 AM 69.8 °F - 66.2 °F 88% 29.92 in 10.0 mi NNW 5.8 mph - N/A   Clear
3:55 AM 71.6 °F - 66.2 °F 83% 29.92 in 10.0 mi North 8.1 mph - N/A   Clear
4:14 AM 71.6 °F - 68.0 °F 88% 29.93 in 10.0 mi North 9.2 mph - N/A   Clear
4:35 AM 69.8 °F - 66.2 °F 88% 29.95 in 10.0 mi NNW 10.4 mph - N/A   Clear
4:55 AM 68.0 °F - 60.8 °F 78% 29.95 in 10.0 mi North 12.7 mph - N/A   Clear
5:14 AM 66.2 °F - 60.8 °F 83% 29.97 in 10.0 mi NNW 11.5 mph - N/A Rain Light Rain
5:35 AM 66.2 °F - 60.8 °F 83% 29.97 in 10.0 mi NNW 11.5 mph - N/A Rain Light Rain
5:54 AM 64.4 °F - 59.0 °F 83% 29.98 in 10.0 mi North 9.2 mph - N/A Thunderstorm Thunderstorm
6:15 AM 66.2 °F - 60.8 °F 83% 29.96 in 10.0 mi ENE 6.9 mph 17.3 mph N/A Rain Light Rain
6:34 AM 66.2 °F - 62.6 °F 88% 29.99 in 10.0 mi NNW 10.4 mph - N/A   Light Drizzle
6:55 AM 64.4 °F - 60.8 °F 88% 30.00 in 10.0 mi North 8.1 mph - N/A   Clear
7:15 AM 64.4 °F - 60.8 °F 88% 30.00 in 10.0 mi North 8.1 mph - N/A   Clear
7:34 AM 64.4 °F - 60.8 °F 88% 30.00 in 10.0 mi North 6.9 mph - N/A   Clear
7:55 AM 64.4 °F - 60.8 °F 88% 30.00 in 10.0 mi North 4.6 mph - N/A   Clear
8:14 AM 64.4 °F - 60.8 °F 88% 30.00 in 10.0 mi North 6.9 mph - N/A   Clear
8:35 AM 64.4 °F - 60.8 °F 88% 30.00 in 10.0 mi North 6.9 mph - N/A   Clear
8:54 AM 66.2 °F - 60.8 °F 83% 30.01 in 10.0 mi North 6.9 mph - N/A   Clear
9:13 AM 66.2 °F - 60.8 °F 83% 30.01 in 10.0 mi North 8.1 mph - N/A   Clear
9:34 AM 68.0 °F - 62.6 °F 83% 30.02 in 10.0 mi North 6.9 mph - N/A   Scattered Clouds
9:55 AM 69.8 °F - 62.6 °F 78% 30.03 in 10.0 mi North 9.2 mph - N/A   Scattered Clouds
10:15 AM 71.6 °F - 62.6 °F 73% 30.03 in 10.0 mi North 10.4 mph - N/A   Clear
10:34 AM 73.4 °F - 64.4 °F 73% 30.04 in 10.0 mi North 10.4 mph - N/A   Clear
10:55 AM 75.2 °F - 62.6 °F 65% 30.04 in 10.0 mi NNE 9.2 mph - N/A   Clear
11:14 AM 75.2 °F - 62.6 °F 65% 30.05 in 10.0 mi NNE 12.7 mph 16.1 mph N/A   Clear
11:35 AM 77.0 °F - 62.6 °F 61% 30.05 in 10.0 mi NE 9.2 mph - N/A   Clear
11:54 AM 78.8 °F - 62.6 °F 57% 30.05 in 10.0 mi ENE 9.2 mph - N/A   Clear
12:15 PM 78.8 °F - 60.8 °F 54% 30.05 in 10.0 mi NE 10.4 mph 17.3 mph N/A   Clear
12:34 PM 80.6 °F 81.5 °F 60.8 °F 51% 30.05 in 10.0 mi NE 13.8 mph 18.4 mph N/A   Clear
12:55 PM 80.6 °F 81.5 °F 60.8 °F 51% 30.05 in 10.0 mi NE 15.0 mph 20.7 mph N/A   Clear
1:14 PM 80.6 °F 81.1 °F 59.0 °F 48% 30.05 in 10.0 mi NE 12.7 mph 19.6 mph N/A   Clear
1:34 PM 80.6 °F 80.8 °F 57.2 °F 45% 30.05 in 10.0 mi NE 10.4 mph 20.7 mph N/A   Clear
1:55 PM 82.4 °F 82.0 °F 57.2 °F 42% 30.05 in 10.0 mi NE 10.4 mph 19.6 mph N/A   Clear
2:14 PM 82.4 °F 82.0 °F 57.2 °F 42% 30.05 in 10.0 mi ENE 11.5 mph - N/A   Clear
2:35 PM 82.4 °F 82.0 °F 57.2 °F 42% 30.05 in 10.0 mi ENE 15.0 mph - N/A   Clear
2:54 PM 82.4 °F 81.4 °F 53.6 °F 37% 30.04 in 10.0 mi East 16.1 mph - N/A   Clear
3:15 PM 82.4 °F - 51.8 °F 35% 30.04 in 10.0 mi ENE 12.7 mph 18.4 mph N/A   Clear
3:34 PM 82.4 °F 81.4 °F 53.6 °F 37% 30.04 in 10.0 mi ENE 12.7 mph 18.4 mph N/A   Clear
3:54 PM 82.4 °F 81.4 °F 53.6 °F 37% 30.04 in 10.0 mi East 12.7 mph 19.6 mph N/A   Clear
4:15 PM 82.4 °F 81.4 °F 53.6 °F 37% 30.05 in 10.0 mi NNE 10.4 mph - N/A   Clear
4:34 PM 82.4 °F 81.7 °F 55.4 °F 39% 30.04 in 10.0 mi NE 10.4 mph 18.4 mph N/A   Clear
4:55 PM 80.6 °F 80.5 °F 55.4 °F 42% 30.05 in 10.0 mi ENE 11.5 mph 17.3 mph N/A   Clear
5:14 PM 80.6 °F 80.5 °F 55.4 °F 42% 30.05 in 10.0 mi NE 9.2 mph - N/A   Clear
5:35 PM 78.8 °F - 55.4 °F 44% 30.06 in 10.0 mi NE 11.5 mph 17.3 mph N/A   Clear
5:55 PM 78.8 °F - 55.4 °F 44% 30.07 in 10.0 mi NE 9.2 mph - N/A   Clear
6:14 PM 77.0 °F - 55.4 °F 47% 30.07 in 10.0 mi NE 11.5 mph 18.4 mph N/A   Clear
6:35 PM 75.2 °F - 55.4 °F 50% 30.07 in 10.0 mi NE 11.5 mph 16.1 mph N/A   Clear
6:54 PM 75.2 °F - 55.4 °F 50% 30.08 in 10.0 mi NE 12.7 mph 16.1 mph N/A   Clear
7:15 PM 73.4 °F - 53.6 °F 50% 30.09 in 10.0 mi NE 9.2 mph 17.3 mph N/A   Clear
7:34 PM 73.4 °F - 51.8 °F 47% 30.08 in 10.0 mi NE 9.2 mph - N/A   Clear
7:55 PM 71.6 °F - 51.8 °F 50% 30.08 in 10.0 mi ENE 8.1 mph - N/A   Clear
8:14 PM 71.6 °F - 51.8 °F 50% 30.08 in 10.0 mi ENE 8.1 mph - N/A   Clear
8:35 PM 69.8 °F - 51.8 °F 53% 30.09 in 10.0 mi ENE 9.2 mph - N/A   Clear
8:55 PM 69.8 °F - 48.2 °F 46% 30.10 in 10.0 mi ENE 9.2 mph - N/A   Clear
9:14 PM - - 48.2 °F N/A% 30.10 in 10.0 mi ENE 8.1 mph - N/A   Clear
9:35 PM 68.0 °F - 48.2 °F 49% 30.10 in 10.0 mi ENE 9.2 mph - N/A   Clear
9:54 PM 68.0 °F - 50.0 °F 52% 30.10 in 10.0 mi East 10.4 mph - N/A   Clear
10:15 PM 66.2 °F - 50.0 °F 56% 30.10 in 10.0 mi East 10.4 mph - N/A   Clear
10:34 PM 66.2 °F - 50.0 °F 56% - 10.0 mi East 9.2 mph - N/A   Clear
10:55 PM 66.2 °F - 51.8 °F 60% 30.10 in 10.0 mi ENE 8.1 mph - N/A   Clear
11:14 PM 64.4 °F - 51.8 °F 64% 30.10 in 10.0 mi East 8.1 mph - N/A   Clear
11:35 PM 64.4 °F - 51.8 °F 64% 30.09 in 10.0 mi East 8.1 mph - N/A   Clear
11:54 PM 64.4 °F - 51.8 °F 64% 30.10 in 10.0 mi East 8.1 mph - N/A   Clear